Flag for U.S.A. Weather past 2 weeks in Berkeley, California, U.S.A.

Now
68 °F

Scattered clouds.


Feels Like: 68 °F
Forecast: 54 / 67 °F
Wind: 17 mph from West

Location: Metro Oakland International Airport


UV Index: 5 (Moderate)

Visibility: 10 mi


Pressure: 29.83 "Hg

Humidity: 49%

Dew point: 48 °F

Location of BerkeleyLocation

Historic Weather in Berkeley

°F

Berkeley temperature yesterday

Maximum temperature yesterday: 65 °F (at 1:53 PM)
Minimum temperature yesterday: 53 °F (at 10:53 PM)
Average temperature yesterday: 58 °F

Past Weeks' High & Low Weather Summary

 TemperatureHumidityPressure
High78 °F (Apr 7, 2:53 PM)90% (Apr 6, 4:53 AM)30.24 "Hg (Apr 6, 4:53 AM)
Low45 °F (Apr 2, 4:53 AM)37% (Apr 7, 2:53 PM)29.83 "Hg (Apr 16, 5:53 PM)
Average58 °F72%30.03 "Hg
* Reported Apr 1 5:53 PM — Apr 16 5:53 PM, Berkeley, Weather by CustomWeather, © 2014

Note: Actual official high and low records may vary slightly from our data, if they occured in-between our weather recording intervals... More about our weather records

Advertising

Historic Weather Conditions — Data for Previous 24 hours

 ConditionsComfort  
Time TempWeatherWind HumidityBarometerVisibility
5:53 PM
Apr 16
68 °FScattered clouds.17 mph49%29.83 "Hg10 mi
4:53 PM70 °FPartly sunny.12 mph44%29.84 "Hg10 mi
3:53 PM71 °FPartly sunny.15 mph44%29.85 "Hg10 mi
2:53 PM72 °FPartly sunny.15 mph44%29.86 "Hg10 mi
1:53 PM70 °FScattered clouds.9 mph49%29.88 "Hg9 mi
12:53 PM70 °FScattered clouds.7 mph49%29.89 "Hg9 mi
11:53 AM66 °FScattered clouds.8 mph52%29.92 "Hg10 mi
10:53 AM62 °FPassing clouds.5 mph65%29.92 "Hg8 mi
9:53 AM60 °FPassing clouds.5 mph69%29.92 "Hg8 mi
8:53 AM59 °FPassing clouds.9 mph72%29.93 "Hg9 mi
7:53 AM57 °FPassing clouds.No wind78%29.93 "Hg8 mi
6:53 AM51 °FClear.3 mph80%29.92 "Hg7 mi
5:53 AM55 °FPassing clouds.6 mph77%29.90 "Hg9 mi
4:53 AM55 °FPassing clouds.12 mph77%29.91 "Hg9 mi
3:53 AM55 °FPassing clouds.7 mph80%29.92 "Hg9 mi
2:53 AM55 °FPassing clouds.8 mph77%29.92 "Hg9 mi
1:53 AM52 °FPassing clouds.No wind80%29.93 "Hg9 mi
12:53 AM52 °FPassing clouds.3 mph80%29.92 "Hg10 mi
11:53 PM
Apr 15
54 °FClear.No wind77%29.93 "Hg10 mi
10:53 PM53 °FPassing clouds.3 mph77%29.94 "Hg10 mi
9:53 PM55 °FPassing clouds.No wind72%29.94 "Hg10 mi
8:53 PM57 °FPassing clouds.14 mph69%29.94 "Hg10 mi
7:53 PM58 °FPassing clouds.10 mph67%29.92 "Hg9 mi
Weather by CustomWeather, © 2014

See weather overview